Simultaneous Nadir Overpasses (SNOs) Predictions

Prediction of SNOs between AQUA and NPP Satellite Orbit:

Table of predicted SNOs for the next 14.0 days since TLE Epoch: 3/1/2025
Index Date (AQUA) Time (AQUA) Lat,Lon (AQUA) SZA (AQUA ) Date (NPP) Time (NPP) Lat,Lon (NPP) SZA (NPP ) Distance(km) Time Diff (sec)
1 03/02/2025 06:45:28 -81.30,-170.47 85.67 03/02/2025 06:44:37 -81.30,-170.43 85.65 0.59 51
2 03/02/2025 07:34:46 81.30, -2.67 94.30 03/02/2025 07:35:21 81.30, -2.67 94.28 0.57 35
3 03/04/2025 17:06:45 81.30,-145.65 93.37 03/04/2025 17:06:15 81.30,-145.79 93.41 2.36 30
4 03/04/2025 17:56:05 -81.29, 21.82 86.62 03/04/2025 17:56:59 -81.30, 21.80 86.65 0.75 54
5 03/07/2025 03:28:01 -81.30,-120.88 87.60 03/07/2025 03:27:52 -81.30,-121.02 87.57 2.42 9
6 03/09/2025 12:59:56 -81.29, 95.90 88.52 03/09/2025 12:58:45 -81.30, 96.06 88.49 2.78 71
7 03/09/2025 13:49:13 81.30, -96.03 91.43 03/09/2025 13:49:29 81.30, -96.20 91.44 3.07 16
8 03/11/2025 23:21:05 81.30, 120.98 90.47 03/11/2025 23:20:21 81.30, 121.16 90.47 3.02 44
9 03/12/2025 00:10:25 -81.29, -71.53 89.52 03/12/2025 00:11:06 -81.30, -71.63 89.53 1.84 41
10 03/14/2025 09:42:14 -81.30, 145.74 90.51 03/14/2025 09:41:58 -81.30, 145.63 90.49 1.94 16



Historial Predications of SNOs between AQUA and NPP
